Tracking 18851 objects as of 25-Nov-2017
HD Live streaming from Space Station
objects crossing your sky now

COSMOS 1707

Track COSMOS 1707 now!
10-day predictions
COSMOS 1707 is classified as:


NORAD ID: 16326
Int'l Code: 1985-113A
Perigee: 524.2 km
Apogee: 541.0 km
Inclination: 82.5 °
Period: 95.1 minutes
Semi major axis: 6903 km
RCS: 8.1597 m2 (large)
Launch date: December 12, 1985
Source: Commonwealth of Independent States (former USSR) (CIS)
Launch site: PLESETSK MISSILE AND SPACE COMPLEX (PKMTR)
aabbcc
Your satellite tracking list
Your tracking list is empty




NASA's NSSDC Master Catalog

Two Line Element Set (TLE):
1 16326U 85113A   17328.36884924 +.00001101 +00000-0 +59640-4 0  9992
2 16326 082.5141 050.9792 0012161 107.1433 253.1131 15.13531583741297
Source of the keplerian elements: AFSPC